Location: Nashville
(36.1660°N, 86.7840°W)
Time: 06:28:45
(UTC-05:00)

AO-109 - Pass Details

Date: 31 May 2022
Orbit: 477 x 502 km, 60.7° (Epoch: 27 June)

Event Time Altitude Azimuth Distance (km) Brightness Sun altitude
Rises 23:00:05 0° 319° (NW) 2,598 ? -26.7°
Reaches altitude 10° 23:02:17 10° 315° (NW) 1,712 ? -26.9°
Enters shadow 23:04:31 31° 298° (WNW) 904 ? -27.1°
